Weather History for KINJ - December, 2013

Change the Weather History Date:

Monday, December 2, 2013

  Actual Average (KACT) Record (KACT)
Temperature  
Mean Temperature 58 °F 51 °F  
Max Temperature 70 °F 62 °F 82 °F (2007)
Min Temperature 45 °F 40 °F 22 °F (1985)
Degree Days  
Heating Degree Days 8 14  
Month to date heating degree days 28  
Since 1 July heating degree days 356  
Cooling Degree Days 0 0  
Month to date cooling degree days 0  
Year to date cooling degree days 2792  
Growing Degree Days 8 (Base 50)    
Moisture  
Dew Point 46 °F    
Average Humidity 75    
Maximum Humidity 96    
Minimum Humidity 34    
Precipitation  
Precipitation 0.00 in 0.08 in 2.97 in (1921)
Month to date precipitation 0.17  
Year to date precipitation 32.11  
Snow  
Snow 0.00 in 0.00 in 0.00 in ()
Month to date snowfall 0.0  
Since 1 July snowfall 0.1  
Snow Depth -    
Sea Level Pressure  
Sea Level Pressure 29.77 in    
Wind  
Wind Speed 2 mph (SE)    
Max Wind Speed 10 mph    
Max Gust Speed -    
Visibility 6 miles    
Events Fog    
T = Trace of Precipitation, MM = Missing Value Source: NWS Daily Summary

Daily Weather History Graph

Daily Weather History Graph

Search for Another Location

Airport or City:

Trip Planner

Search our weather history database for the weather conditions in past years. The results will help you decide how hot, cold, wet, or windy it might be!

Date:

Astronomy

Dec. 02, 2013 Rise Set
Actual Time 7:12 AM CST 5:23 PM CST
Civil Twilight 6:45 AM CST 5:50 PM CST
Nautical Twilight 6:15 AM CST 6:20 PM CST
Astronomical Twilight 5:45 AM CST 6:50 PM CST
Moon 6:40 AM CST (12/2) 5:25 PM CST (12/2)
Length of Visible Light 11h 04m
Length of Day
10h 11m
Waning Crescent, 0% of the Moon is Illuminated
Dec 2
Waning Crescent
Dec 2
New
Dec 9
First Quarter
Dec 17
Full
Dec 25
Last Quarter

Hourly Weather History & Observations

Time (CST) Temp. Dew Point Humidity Pressure Visibility Wind Dir Wind Speed Gust Speed Precip Events Conditions
12:15 AM 53.6 °F 50.9 °F 91% 29.91 in 10.0 mi Calm Calm - N/A   Clear
12:35 AM 53.2 °F 50.7 °F 91% 29.90 in 5.0 mi Calm Calm - N/A   Clear
12:55 AM 53.8 °F 51.4 °F 92% 29.90 in 0.2 mi Calm Calm - N/A Fog Fog
1:15 AM 52.7 °F 50.5 °F 92% 29.90 in 0.2 mi Calm Calm - N/A Fog Fog
1:35 AM 50.4 °F 48.2 °F 92% 29.90 in 0.2 mi Calm Calm - N/A Fog Fog
1:55 AM 48.6 °F 46.4 °F 92% 29.90 in 0.2 mi Calm Calm - N/A Fog Fog
2:15 AM 49.1 °F 47.3 °F 93% 29.89 in 0.2 mi Calm Calm - N/A Fog Fog
2:35 AM 49.5 °F 47.7 °F 94% 29.88 in 0.2 mi Calm Calm - N/A Fog Fog
2:55 AM 49.5 °F 47.8 °F 94% 29.87 in 0.2 mi Calm Calm - N/A Fog Fog
3:15 AM 50.4 °F 48.9 °F 95% 29.86 in 0.2 mi Calm Calm - N/A Fog Fog
3:35 AM 47.8 °F 46.2 °F 94% 29.86 in 0.2 mi Calm Calm - N/A Fog Fog
3:55 AM 46.6 °F 45.0 °F 94% 29.85 in 0.2 mi Calm Calm - N/A Fog Fog
4:15 AM 46.4 °F 44.8 °F 94% 29.85 in 0.2 mi Calm Calm - N/A Fog Fog
4:35 AM 47.5 °F 46.0 °F 95% 29.85 in 0.2 mi Calm Calm - N/A Fog Fog
4:55 AM 45.5 °F 43.9 °F 94% 29.83 in 0.2 mi Calm Calm - N/A Fog Fog
5:15 AM 46.4 °F 45.0 °F 95% 29.83 in 0.2 mi Calm Calm - N/A Fog Fog
5:35 AM 46.6 °F 45.1 °F 95% 29.83 in 0.2 mi Calm Calm - N/A Fog Fog
5:55 AM 46.4 °F 44.8 °F 94% 29.83 in 0.2 mi Calm Calm - N/A Fog Fog
6:15 AM 46.4 °F 44.8 °F 94% 29.83 in 0.2 mi Calm Calm - N/A Fog Fog
6:35 AM 47.7 °F 46.4 °F 95% 29.83 in 0.2 mi Calm Calm - N/A Fog Fog
6:55 AM 47.3 °F 46.0 °F 95% 29.83 in 0.2 mi Calm Calm - N/A Fog Fog
7:15 AM 46.9 °F 45.7 °F 95% 29.83 in 0.2 mi Calm Calm - N/A Fog Fog
7:35 AM 47.3 °F 46.0 °F 95% 29.82 in 0.2 mi Calm Calm - N/A Fog Fog
7:55 AM 46.9 °F 45.7 °F 95% 29.83 in 0.2 mi Calm Calm - N/A Fog Fog
8:15 AM 46.8 °F 45.5 °F 95% 29.84 in 0.2 mi Calm Calm - N/A Fog Fog
8:35 AM 46.8 °F 45.5 °F 95% 29.83 in 0.2 mi Calm Calm - N/A Fog Fog
8:55 AM 48.0 °F 46.8 °F 95% 29.83 in 0.2 mi Calm Calm - N/A Fog Fog
9:15 AM 49.3 °F 48.2 °F 96% 29.83 in 0.2 mi Calm Calm - N/A Fog Fog
9:35 AM 50.0 °F 48.6 °F 95% 29.84 in 0.2 mi SSW 3.5 mph - N/A Fog Fog
9:55 AM 50.2 °F 49.1 °F 96% 29.84 in 0.2 mi Calm Calm - N/A Fog Fog
10:15 AM 51.3 °F 50.0 °F 95% 29.83 in 0.5 mi Calm Calm - N/A Fog Fog
10:35 AM 52.2 °F 50.9 °F 95% 29.83 in 3.0 mi Calm Calm - N/A   Overcast
10:55 AM 53.6 °F 52.3 °F 95% 29.82 in 7.0 mi Calm Calm - N/A   Mostly Cloudy
11:15 AM 53.6 °F 52.3 °F 95% 29.80 in 10.0 mi Calm Calm - N/A   Clear
11:35 AM 54.7 °F 53.2 °F 95% 29.79 in 10.0 mi Calm Calm - N/A   Clear
11:55 AM 55.6 °F 54.0 °F 94% 29.79 in 10.0 mi SW 4.6 mph - N/A   Clear
12:15 PM 60.4 °F 57.6 °F 90% 29.77 in 10.0 mi Calm Calm - N/A   Clear
12:35 PM 63.1 °F 55.8 °F 77% 29.75 in 10.0 mi South 4.6 mph - N/A   Clear
12:55 PM 64.9 °F 48.7 °F 56% 29.74 in 10.0 mi SSW 3.5 mph - N/A   Clear
1:15 PM 66.9 °F 44.6 °F 45% 29.73 in 10.0 mi WSW 3.5 mph - N/A   Clear
1:35 PM 67.8 °F 38.3 °F 34% 29.72 in 10.0 mi WSW 4.6 mph - N/A   Clear
1:55 PM 68.0 °F 40.6 °F 37% 29.71 in 10.0 mi SW 3.5 mph - N/A   Clear
2:15 PM 68.9 °F 43.0 °F 39% 29.71 in 10.0 mi West 6.9 mph - N/A   Clear
2:35 PM 69.8 °F 43.7 °F 39% 29.70 in 10.0 mi SSW 3.5 mph - N/A   Clear
2:55 PM 70.3 °F 44.1 °F 39% 29.69 in 10.0 mi South 5.8 mph - N/A   Clear
3:15 PM 70.3 °F 44.1 °F 39% 29.69 in 10.0 mi South 3.5 mph - N/A   Clear
3:35 PM 70.9 °F 41.5 °F 35% 29.68 in 10.0 mi SW 4.6 mph - N/A   Clear
3:55 PM 70.7 °F 43.5 °F 37% 29.68 in 10.0 mi West 4.6 mph - N/A   Clear
4:15 PM 70.0 °F 45.0 °F 41% 29.68 in 10.0 mi NNW 4.6 mph - N/A   Clear
4:35 PM 69.3 °F 44.8 °F 41% 29.68 in 10.0 mi Calm Calm - N/A   Clear
4:55 PM 69.1 °F 44.6 °F 41% 29.68 in 10.0 mi Calm Calm - N/A   Clear
5:15 PM 65.7 °F 47.3 °F 51% 29.68 in 10.0 mi Calm Calm - N/A   Clear
5:35 PM 64.9 °F 43.3 °F 45% 29.69 in 10.0 mi Calm Calm - N/A   Clear
5:55 PM 60.6 °F 45.3 °F 57% 29.69 in 10.0 mi East 5.8 mph - N/A   Clear
6:15 PM 59.9 °F 45.7 °F 59% 29.70 in 10.0 mi East 5.8 mph - N/A   Clear
6:35 PM 59.0 °F 46.2 °F 63% 29.70 in 10.0 mi East 5.8 mph - N/A   Clear
6:55 PM 59.0 °F 45.9 °F 62% 29.70 in 10.0 mi East 6.9 mph - N/A   Clear
7:15 PM 58.6 °F 45.7 °F 62% 29.70 in 10.0 mi East 8.1 mph - N/A   Clear
7:35 PM 57.6 °F 45.7 °F 65% 29.70 in 10.0 mi East 8.1 mph - N/A   Clear
7:55 PM 57.9 °F 45.5 °F 63% 29.70 in 10.0 mi East 6.9 mph - N/A   Clear
8:15 PM 56.8 °F 44.8 °F 64% 29.70 in 10.0 mi ENE 6.9 mph - N/A   Clear
8:35 PM 55.9 °F 45.0 °F 67% 29.70 in 10.0 mi ENE 8.1 mph - N/A   Clear
8:55 PM 55.4 °F 44.8 °F 67% 29.70 in 10.0 mi East 8.1 mph - N/A   Clear
9:15 PM 56.3 °F 44.8 °F 65% 29.69 in 10.0 mi East 9.2 mph - N/A   Clear
9:35 PM 56.3 °F 44.6 °F 65% 29.69 in 10.0 mi East 10.4 mph - N/A   Clear
9:55 PM 56.3 °F 44.4 °F 64% 29.68 in 10.0 mi East 10.4 mph - N/A   Clear
10:15 PM 56.1 °F 44.1 °F 64% 29.68 in 10.0 mi East 10.4 mph - N/A   Clear
10:35 PM 55.8 °F 43.7 °F 64% 29.69 in 10.0 mi East 10.4 mph - N/A   Clear
10:55 PM 55.8 °F 43.7 °F 64% 29.69 in 10.0 mi East 10.4 mph - N/A   Clear
11:15 PM 55.4 °F 43.3 °F 64% 29.69 in 10.0 mi East 6.9 mph - N/A   Clear
11:35 PM 55.4 °F 42.6 °F 62% 29.69 in 10.0 mi Calm Calm - N/A   Clear
11:55 PM 51.1 °F 41.7 °F 70% 29.68 in 10.0 mi Calm Calm - N/A   Clear